Flag for Slovakia Weather past 2 weeks in Prievidza, Slovakia

Now
77 °F

Thunderstorms. Overcast.


Feels Like: 78 °F
Forecast: 61 / 81 °F
Wind: 3 mph from Southeast

Location: Prievidza

Current Time: Jul 29, 2014 at 6:52:19 PM

Latest Report: Jul 29, 2014 at 6:00 PM


Visibility: 16 mi

Pressure: 29.75 "Hg

Humidity: 61%

Dew point: 62 °F

Location of PrievidzaLocation

Historic Weather in Prievidza — Graph

°F

Prievidza temperature yesterday

Maximum temperature yesterday: 83 °F (at 3:00 PM)
Minimum temperature yesterday: 64 °F (at 4:00 AM)
Average temperature yesterday: 68 °F

Past Weeks' High & Low Weather Summary

 TemperatureHumidityPressure
High90 °F (Jul 20, 3:00 PM)95% (Jul 23, 6:00 AM)30.09 "Hg (Jul 23, 6:00 AM)
Low57 °F (Jul 25, 3:00 AM)32% (Jul 17, 1:00 PM)29.67 "Hg (Jul 21, 4:00 PM)
Average72 °F68%29.92 "Hg
* Reported Jul 14 6:00 PM — Jul 29 6:00 PM, Prievidza, Weather by CustomWeather, © 2014

Note: Actual official high and low records may vary slightly from our data, if they occured in-between our weather recording intervals... More about our weather records

Advertising

Prievidza weather history for previous 24 hours

 ConditionsComfort  
Time TempWeatherWind HumidityBarometerVisibility
6:00 PM
Jul 29
77 °FThunderstorms. Overcast.3 mph61%29.75 "Hg16 mi
5:00 PM76 °FPartly sunny.3 mph60%29.75 "Hg19 mi
4:00 PM78 °FPartly sunny.N/A54%29.75 "Hg22 mi
3:00 PM81 °FScattered clouds.2 mph52%29.75 "Hg19 mi
2:00 PM78 °FPartly sunny.N/A56%29.78 "Hg22 mi
1:00 PM76 °FPartly sunny.2 mph62%29.80 "Hg25 mi
12:00 PM75 °FPartly sunny.N/A65%29.80 "Hg22 mi
11:00 AM73 °FPartly sunny.N/A70%29.81 "Hg19 mi
10:00 AM71 °FOvercast.N/A76%29.82 "Hg22 mi
9:00 AM70 °FPartly sunny.N/A80%29.82 "Hg22 mi
8:00 AM68 °FLow clouds.5 mph82%29.82 "Hg18 mi
7:00 AM65 °FMild.3 mph88%29.82 "Hg14 mi
6:00 AM64 °FMild.5 mph91%29.83 "Hg11 mi
5:00 AM63 °FMild.3 mph92%29.84 "Hg9 mi
4:00 AM63 °FMild.3 mph92%29.83 "Hg11 mi
3:00 AM63 °FMild.2 mph93%29.83 "Hg9 mi
2:00 AM64 °FMild.3 mph91%29.84 "Hg13 mi
1:00 AM64 °FMild.5 mph91%29.85 "Hg16 mi
12:00 AM65 °FMild.5 mph90%29.85 "Hg14 mi
11:00 PM
Jul 28
65 °FMild.2 mph92%29.85 "Hg12 mi
10:00 PM66 °FPassing clouds.3 mph90%29.86 "Hg16 mi
9:00 PM66 °FPassing clouds.5 mph92%29.85 "Hg10 mi
8:00 PM67 °FOvercast.2 mph91%29.85 "Hg12 mi
7:00 PM68 °FLight rain. Overcast.2 mph90%29.86 "Hg7 mi
6:00 PM68 °FThunderstorms. Overcast.N/A89%29.87 "Hg16 mi
Weather by CustomWeather, © 2014

See weather overviewHow to use our weather pages